Location: Los Ranchitos
(37.9930°N, 122.5425°W)
Time: 03:09:25
(UTC+00:00)

NOSS 2-2 (E) - Pass Details

Date: 21 September 2020
Orbit: 468 x 1739 km, 63.3° (Epoch: 26 October)

Event Time Altitude Azimuth Distance (km) Brightness Sun altitude
Rises 02:36:02 0° 218° (SW) 2,538 7.2 -6.1°
Reaches altitude 10° 02:38:10 10° 221° (SW) 1,625 6.2 -6.5°
Maximum altitude 02:41:37 66° 304° (WNW) 518 3.5 -7.2°
Drops below altitude 10° 02:45:18 10° 28° (NNE) 1,725 5.7 -7.9°
Sets 02:47:37 0° 31° (NNE) 2,714 6.6 -8.4°
